NIMBUS 2 DEB, 31579

Orbit data source: Space-Track

NIMBUS 2 DEB, 31579 is space debris in SSO originally from a launch on Sun, 15 May 1966 UTC launched from the Air Force Western Test Range (AFWTR). Debris objects in space refer to the collection of defunct objects orbiting the Earth. Examples of debris include non-operational satellites, rocket bodies, and fragments generated from explosions, collisions, or faulty payload assembly.

Loading next visibility...
Identifier
31579, 1966-040AR
Orbit
SSO
Country
Flag of USUS
Related business
Manufacturer
Unknown
Mission
Spacecraft
Bus & Motor
Unknown
Mass
Unknown
Launch date (UTC)
1966-05-15 (59 years ago)
Launch vehicle
Unknown
Launch site
Air Force Western Test Range (AFWTR)
Object type
Payload
Rocket body
Debris
Shape & HBR
Unknown shape, 0.1 m
Radar Cross Section
Small (<0.1 m²)

Expand to show TLE details & history
Last TLE update: 2 days ago

TLE from 2 days ago
0 NIMBUS 2 DEB
1 31579U 66040AR  25285.38256413  .00002191  00000-0  35122-2 0  9993
2 31579 100.5080 247.8738 0050226  21.8092 130.2184 13.49657228902914
Epoch: 2025-10-12T09:10Z
TLE epoch observation values (Epoch: 2025-10-12T09:10:53.540Z)
Latitude
27.07346°
Longitude
-85.63742°
Altitude
1,100.965 km
Speed
7.292 km/s
True Right ascension
04h 53m 08s
True Declination
26° 56' 27"
Sunlit
Object was in full shadow at epoch
Visualization orbit readout
Latitude
Unknown
Longitude
Unknown
Altitude
Unknown
Speed
Unknown
Apparent Right ascension
Unknown
Apparent Declination
Unknown
Sunlit
N/A
Visualization observer readout
Local Sidereal Time
04:42:02
Azimuth
Unknown
Elevation
Unknown
Doppler factor
Unknown
Orbital elements
Apogee altitude
1,108.278 km
Perigee altitude
1,033.451 km
Semi-major axis
7,449.002 km
Eccentricity
0.00502
Inclination
100.508°
RAAN
247.8738°
Arg. of periapsis
21.8092°
True anomaly
130.6561°
Mean anomaly
130.2184°
Eccentric anomaly
130.43743°
Mean motion
3.37595 °/min
Orbital period
106.64 mins
BSTAR
0.0035122
Loading maneuver chart data...
Computing Atmospheric mass density...
Loading historical data...
Loading historical data...
Loading historical data...
Loading historical data...
Loading historical data...
Loading historical data...
Loading historical data...

Documentation

Showing up to 5 results
|